Change the Weather History Date:

Thursday, February 28, 2013

  Actual Average (KCHO) Record (KCHO)
Temperature  
Mean Temperature 40 °F 41 °F  
Max Temperature 46 °F 52 °F 79 °F (1918)
Min Temperature 35 °F 30 °F 5 °F (1934)
Degree Days  
Heating Degree Days 24 24  
Month to date heating degree days 752  
Since 1 July heating degree days 3412  
Cooling Degree Days 0 0  
Month to date cooling degree days 0  
Year to date cooling degree days 0  
Moisture  
Dew Point 28 °F    
Average Humidity 60    
Maximum Humidity 93    
Minimum Humidity 40    
Precipitation  
Precipitation 0.00 in 0.12 in 0.59 in (1982)
Month to date precipitation 2.70  
Year to date precipitation 5.47  
Sea Level Pressure  
Sea Level Pressure 29.68 in    
Wind  
Wind Speed 5 mph (West)    
Max Wind Speed 18 mph    
Max Gust Speed 24 mph    
Visibility 10 miles    
Events      
T = Trace of Precipitation, MM = Missing Value Source: NWS Daily Summary

Daily Weather History Graph

Daily Weather History Graph

Search for Another Location

Airport or City:

Trip Planner

Search our weather history database for the weather conditions in past years. The results will help you decide how hot, cold, wet, or windy it might be!

Date:

Astronomy

Feb. 28, 2013 Rise Set
Actual Time 6:44 AM EST 6:04 PM EST
Civil Twilight 6:18 AM EST 6:31 PM EST
Nautical Twilight 5:47 AM EST 7:01 PM EST
Astronomical Twilight 5:17 AM EST 7:32 PM EST
Moon 9:25 PM EST (2/28) 7:56 AM EST (2/28)
Length of Visible Light 12h 12m
Length of Day
11h 19m
Waning Gibbous, 91% of the Moon is Illuminated
Feb 28
Waning Gibbous
Mar 4
Last Quarter
Mar 11
New
Mar 19
First Quarter
Mar 27
Full

Hourly Weather History & Observations

Time (EST) Temp. Windchill Dew Point Humidity Pressure Visibility Wind Dir Wind Speed Gust Speed Precip Events Conditions
12:15 AM 41.0 °F - 35.6 °F 81% 29.65 in 10.0 mi Calm Calm - N/A   Overcast
12:35 AM 42.8 °F - 33.8 °F 70% 29.64 in 10.0 mi Calm Calm - N/A   Mostly Cloudy
12:55 AM 42.8 °F 40.1 °F 33.8 °F 70% 29.64 in 10.0 mi WNW 4.6 mph - N/A   Scattered Clouds
1:15 AM 37.4 °F 34.9 °F 33.8 °F 87% 29.64 in 10.0 mi WSW 3.5 mph - N/A   Clear
1:35 AM 39.2 °F 37.0 °F 33.8 °F 81% 29.64 in 10.0 mi SW 3.5 mph - N/A   Clear
1:55 AM 39.2 °F - 32.0 °F 75% 29.63 in 10.0 mi Calm Calm - N/A   Scattered Clouds
2:15 AM 37.4 °F - 33.8 °F 87% 29.63 in 10.0 mi Calm Calm - N/A   Mostly Cloudy
2:35 AM 39.2 °F 37.0 °F 33.8 °F 81% 29.62 in 10.0 mi West 3.5 mph - N/A   Overcast
2:55 AM 35.6 °F 32.8 °F 33.8 °F 93% 29.63 in 10.0 mi SW 3.5 mph - N/A   Overcast
3:15 AM 39.2 °F 37.0 °F 33.8 °F 81% 29.63 in 10.0 mi WSW 3.5 mph - N/A   Overcast
3:35 AM 39.2 °F 35.9 °F 33.8 °F 81% 29.62 in 10.0 mi West 4.6 mph - N/A   Overcast
3:55 AM 39.2 °F 35.0 °F 33.8 °F 81% 29.62 in 10.0 mi WSW 5.8 mph - N/A   Mostly Cloudy
4:15 AM 39.2 °F 34.2 °F 32.0 °F 75% 29.63 in 10.0 mi West 6.9 mph - N/A   Overcast
4:55 AM 41.0 °F 36.4 °F 33.8 °F 76% 29.64 in 10.0 mi West 6.9 mph - N/A   Overcast
5:15 AM 41.0 °F 39.0 °F 32.0 °F 70% 29.64 in 10.0 mi West 3.5 mph - N/A   Mostly Cloudy
5:35 AM 39.2 °F 35.9 °F 32.0 °F 75% 29.65 in 10.0 mi West 4.6 mph - N/A   Mostly Cloudy
5:55 AM 39.2 °F 35.9 °F 32.0 °F 75% 29.65 in 10.0 mi WSW 4.6 mph - N/A   Scattered Clouds
6:15 AM 39.2 °F 35.9 °F 30.2 °F 70% 29.66 in 10.0 mi West 4.6 mph - N/A   Clear
6:35 AM 39.2 °F 37.0 °F 30.2 °F 70% 29.66 in 10.0 mi WNW 3.5 mph - N/A   Clear
6:55 AM 35.6 °F - 30.2 °F 81% 29.67 in 10.0 mi Calm Calm - N/A   Scattered Clouds
7:15 AM 35.6 °F - 30.2 °F 81% 29.67 in 10.0 mi Calm Calm - N/A   Scattered Clouds
7:35 AM 37.4 °F 34.9 °F 32.0 °F 81% 29.67 in 10.0 mi West 3.5 mph - N/A   Mostly Cloudy
7:55 AM 39.2 °F - 32.0 °F 75% 29.68 in 10.0 mi Calm Calm - N/A   Overcast
8:15 AM 41.0 °F - 30.2 °F 65% 29.68 in 10.0 mi Calm Calm - N/A   Scattered Clouds
8:35 AM 42.8 °F 40.1 °F 28.4 °F 57% 29.69 in 10.0 mi WNW 4.6 mph - N/A   Scattered Clouds
9:15 AM 42.8 °F 37.0 °F 28.4 °F 57% 29.68 in 10.0 mi West 10.4 mph - N/A   Clear
9:35 AM 44.6 °F 40.2 °F 26.6 °F 49% 29.68 in 10.0 mi West 8.1 mph - N/A   Clear
9:55 AM 44.6 °F 39.7 °F 26.6 °F 49% 29.69 in 10.0 mi West 9.2 mph - N/A   Clear
10:15 AM 44.6 °F 39.7 °F 26.6 °F 49% 29.68 in 10.0 mi West 9.2 mph - N/A   Clear
10:55 AM 44.6 °F 38.8 °F 24.8 °F 46% 29.68 in 10.0 mi West 11.5 mph - N/A   Mostly Cloudy
11:15 AM 44.6 °F 39.2 °F 24.8 °F 46% 29.69 in 10.0 mi West 10.4 mph - N/A   Mostly Cloudy
11:35 AM 46.4 °F 41.5 °F 24.8 °F 43% 29.68 in 10.0 mi West 10.4 mph 18.4 mph N/A   Overcast
11:55 AM 46.4 °F 41.1 °F 24.8 °F 43% 29.68 in 10.0 mi West 11.5 mph 21.9 mph N/A   Mostly Cloudy
12:15 PM 46.4 °F 41.5 °F 24.8 °F 43% 29.67 in 10.0 mi West 10.4 mph 18.4 mph N/A   Mostly Cloudy
12:35 PM 44.6 °F 39.7 °F 26.6 °F 49% 29.67 in 10.0 mi SW 9.2 mph 18.4 mph N/A   Overcast
12:55 PM 44.6 °F 41.4 °F 26.6 °F 49% 29.67 in 10.0 mi WSW 5.8 mph - N/A   Overcast
1:15 PM 46.4 °F 41.5 °F 26.6 °F 46% 29.66 in 10.0 mi West 10.4 mph 17.3 mph N/A   Overcast
1:35 PM 46.4 °F 40.7 °F 26.6 °F 46% 29.66 in 10.0 mi West 12.7 mph 24.2 mph N/A   Overcast
1:55 PM 46.4 °F 39.8 °F 28.4 °F 50% 29.66 in 10.0 mi NW 16.1 mph 23.0 mph N/A   Overcast
2:15 PM 46.4 °F 39.2 °F 28.4 °F 50% 29.67 in 10.0 mi WNW 18.4 mph 21.9 mph N/A   Overcast
2:35 PM 44.6 °F 39.2 °F 28.4 °F 53% 29.67 in 10.0 mi West 10.4 mph 17.3 mph N/A   Mostly Cloudy
2:55 PM 44.6 °F 39.2 °F 26.6 °F 49% 29.67 in 10.0 mi WNW 10.4 mph - N/A   Mostly Cloudy
3:15 PM 44.6 °F 39.2 °F 26.6 °F 49% 29.67 in 10.0 mi West 10.4 mph - N/A   Overcast
3:35 PM 44.6 °F 39.2 °F 24.8 °F 46% 29.66 in 10.0 mi West 10.4 mph - N/A   Scattered Clouds
4:15 PM 46.4 °F 43.5 °F 24.8 °F 43% 29.66 in 10.0 mi SW 5.8 mph - N/A   Scattered Clouds
4:35 PM 46.4 °F 41.5 °F 24.8 °F 43% 29.65 in 10.0 mi West 10.4 mph - N/A   Mostly Cloudy
4:55 PM 46.4 °F 42.4 °F 23.0 °F 40% 29.66 in 10.0 mi West 8.1 mph - N/A   Overcast
5:15 PM 46.4 °F 40.4 °F 23.0 °F 40% 29.66 in 10.0 mi West 13.8 mph - N/A   Mostly Cloudy
5:35 PM 46.4 °F 41.9 °F 24.8 °F 43% 29.67 in 10.0 mi West 9.2 mph - N/A   Mostly Cloudy
5:55 PM 44.6 °F 38.4 °F 24.8 °F 46% 29.68 in 10.0 mi West 12.7 mph 19.6 mph N/A   Overcast
6:15 PM 44.6 °F 39.2 °F 24.8 °F 46% 29.69 in 10.0 mi West 10.4 mph 18.4 mph N/A   Overcast
6:35 PM 42.8 °F 36.6 °F 24.8 °F 49% 29.71 in 10.0 mi West 11.5 mph 17.3 mph N/A   Mostly Cloudy
6:55 PM 42.8 °F 36.2 °F 24.8 °F 49% 29.72 in 10.0 mi West 12.7 mph 18.4 mph N/A   Overcast
7:15 PM 42.8 °F 38.6 °F 24.8 °F 49% 29.72 in 10.0 mi WSW 6.9 mph - N/A   Overcast
7:35 PM 42.8 °F 41.1 °F 24.8 °F 49% 29.73 in 10.0 mi WSW 3.5 mph - N/A   Overcast
8:15 PM 42.8 °F 37.5 °F 24.8 °F 49% 29.74 in 10.0 mi West 9.2 mph - N/A   Overcast
8:35 PM 42.8 °F - 24.8 °F 49% 29.74 in 10.0 mi Calm Calm - N/A   Overcast
8:55 PM 42.8 °F 41.1 °F 24.8 °F 49% 29.75 in 10.0 mi WSW 3.5 mph - N/A   Overcast
9:15 PM 41.0 °F 35.8 °F 24.8 °F 53% 29.75 in 10.0 mi West 8.1 mph - N/A   Overcast
9:35 PM 39.2 °F 34.2 °F 24.8 °F 56% 29.74 in 10.0 mi West 6.9 mph - N/A   Overcast
9:55 PM 39.2 °F 35.9 °F 24.8 °F 56% 29.74 in 10.0 mi WSW 4.6 mph - N/A   Mostly Cloudy
10:15 PM 39.2 °F 35.9 °F 24.8 °F 56% 29.74 in 10.0 mi WSW 4.6 mph - N/A   Overcast
10:35 PM 39.2 °F - 24.8 °F 56% 29.74 in 10.0 mi Calm Calm - N/A   Overcast
11:15 PM 39.2 °F 34.2 °F 26.6 °F 61% 29.74 in 10.0 mi West 6.9 mph - N/A   Overcast
11:35 PM 39.2 °F 34.2 °F 26.6 °F 61% 29.74 in 10.0 mi West 6.9 mph - N/A   Overcast
11:55 PM 39.2 °F 35.0 °F 26.6 °F 61% 29.74 in 10.0 mi West 5.8 mph - N/A   Overcast